CSS7630 ZYTL-ZYTX

Flight info

Callsign CSS7630
Flight time 0h 46m
Altitude 33100
Route VENOS A588 TOSID TOS73A
Aircraft B763/H-SDE3FGHIM3RWXY/LB1

Departure

Time 2026-05-05 10:50
Airport Dalian Zhoushuizi International Airport (ZYTL)

Arrival

Time 2026-05-05 11:36
Airport Shenyang Taoxian International Airport (ZYTX)
Time Latitude Longitude Altitude Speed Heading
2026-05-05 09:56 38.96237 121.54422 120 ft 0 kts
2026-05-05 10:42 38.96238 121.54422 119 ft 1 kts
2026-05-05 10:43 38.96261 121.54424 119 ft 4 kts
2026-05-05 10:43 38.96265 121.54424 119 ft 5 kts
2026-05-05 10:43 38.96296 121.54414 119 ft 5 kts 326°
2026-05-05 10:43 38.96312 121.54361 119 ft 7 kts 281°
2026-05-05 10:44 38.96323 121.54245 119 ft 18 kts 276°
2026-05-05 10:44 38.96336 121.54031 119 ft 29 kts 278°
2026-05-05 10:44 38.96363 121.53746 119 ft 33 kts 275°
2026-05-05 10:44 38.96387 121.53445 119 ft 34 kts 276°
2026-05-05 10:45 38.96414 121.53132 119 ft 35 kts 277°
2026-05-05 10:45 38.96440 121.52815 119 ft 36 kts 276°
2026-05-05 10:45 38.96468 121.52488 119 ft 37 kts 277°
2026-05-05 10:45 38.96487 121.52248 119 ft 19 kts 276°
2026-05-05 10:46 38.96530 121.52081 119 ft 20 kts 307°
2026-05-05 10:46 38.96604 121.51972 119 ft 0 kts 340°
2026-05-05 10:48 38.96623 121.51967 119 ft 9 kts 351°
2026-05-05 10:48 38.96715 121.52001 119 ft 15 kts 81°
2026-05-05 10:48 38.96714 121.52082 119 ft 0 kts 94°
2026-05-05 10:48 38.96714 121.52084 119 ft 1 kts 94°
2026-05-05 10:49 38.96709 121.52141 119 ft 17 kts 96°
2026-05-05 10:49 38.96708 121.52158 119 ft 19 kts 97°
2026-05-05 10:49 38.96676 121.52505 119 ft 66 kts 96°
2026-05-05 10:50 38.96608 121.53352 119 ft 122 kts 97°
2026-05-05 10:50 38.96479 121.54660 137 ft 170 kts 101°
2026-05-05 10:50 38.96293 121.56198 684 ft 173 kts 102°
2026-05-05 10:50 38.96033 121.57798 1089 ft 191 kts 104°
2026-05-05 10:51 38.95787 121.59481 1559 ft 198 kts 101°
2026-05-05 10:51 38.95766 121.61342 1735 ft 221 kts 84°
2026-05-05 10:51 38.95924 121.63313 2332 ft 224 kts 89°
2026-05-05 10:51 38.95939 121.65205 2556 ft 246 kts 93°
2026-05-05 10:52 38.95863 121.67441 3214 ft 251 kts 95°
2026-05-05 10:52 38.95743 121.69695 3822 ft 258 kts 96°
2026-05-05 10:52 38.95594 121.71986 4524 ft 263 kts 97°
2026-05-05 10:52 38.95427 121.74337 5328 ft 260 kts 97°
2026-05-05 10:53 38.95254 121.76659 5887 ft 269 kts 97°
2026-05-05 10:53 38.95070 121.79047 6565 ft 272 kts 96°
2026-05-05 10:53 38.94881 121.81490 7259 ft 274 kts 97°
2026-05-05 10:53 38.94685 121.83987 7829 ft 281 kts 96°
2026-05-05 10:54 38.94432 121.86533 8540 ft 281 kts 99°
2026-05-05 10:54 38.94142 121.89060 9174 ft 284 kts 98°
2026-05-05 10:54 38.93899 121.91589 9792 ft 287 kts 97°
2026-05-05 10:54 38.93668 121.94188 10160 ft 301 kts 96°
2026-05-05 10:55 38.93439 121.96925 10429 ft 318 kts 96°
2026-05-05 10:55 38.93200 121.99834 10713 ft 335 kts 95°
2026-05-05 10:55 38.92953 122.02871 11006 ft 353 kts 95°
2026-05-05 10:55 38.92690 122.06115 11390 ft 367 kts 95°
2026-05-05 10:56 38.92417 122.09461 12122 ft 372 kts 95°
2026-05-05 10:56 38.92145 122.12804 12742 ft 378 kts 95°
2026-05-05 10:56 38.91869 122.16180 13366 ft 384 kts 95°
2026-05-05 10:56 38.91586 122.19637 13980 ft 390 kts 95°
2026-05-05 10:57 38.91302 122.23090 14565 ft 395 kts 95°
2026-05-05 10:57 38.91141 122.26675 15120 ft 399 kts 85°
2026-05-05 10:57 38.91642 122.30219 15683 ft 401 kts 69°
2026-05-05 10:57 38.92829 122.33474 16229 ft 401 kts 53°
2026-05-05 10:58 38.94640 122.36243 16777 ft 398 kts 38°
2026-05-05 10:58 38.96863 122.38287 17323 ft 396 kts 26°
2026-05-05 10:58 38.99258 122.40099 17882 ft 400 kts 26°
2026-05-05 10:58 39.01679 122.41983 18436 ft 403 kts 26°
2026-05-05 10:59 39.04165 122.43938 18977 ft 407 kts 26°
2026-05-05 10:59 39.06627 122.45886 19491 ft 411 kts 25°
2026-05-05 10:59 39.09090 122.47842 19986 ft 415 kts 25°
2026-05-05 10:59 39.11585 122.49828 20484 ft 419 kts 25°
2026-05-05 11:00 39.14084 122.51820 20960 ft 423 kts 25°
2026-05-05 11:00 39.16600 122.53829 21427 ft 426 kts 25°
2026-05-05 11:00 39.19127 122.55849 21870 ft 431 kts 25°
2026-05-05 11:00 39.21652 122.57868 22310 ft 434 kts 24°
2026-05-05 11:01 39.24225 122.59929 22749 ft 438 kts 24°
2026-05-05 11:01 39.26838 122.62018 23167 ft 441 kts 23°
2026-05-05 11:01 39.29488 122.63925 23592 ft 442 kts 20°
2026-05-05 11:01 39.32224 122.65861 23966 ft 447 kts 21°
2026-05-05 11:02 39.34946 122.67799 24360 ft 450 kts 21°
2026-05-05 11:02 39.37683 122.69750 24745 ft 453 kts 21°
2026-05-05 11:02 39.40428 122.71707 25116 ft 456 kts 21°
2026-05-05 11:02 39.43240 122.73716 25483 ft 460 kts 21°
2026-05-05 11:03 39.46092 122.75754 25837 ft 463 kts 20°
2026-05-05 11:03 39.48918 122.77776 26172 ft 467 kts 20°
2026-05-05 11:03 39.51743 122.79800 26477 ft 470 kts 20°
2026-05-05 11:03 39.54635 122.81873 26823 ft 473 kts 20°
2026-05-05 11:04 39.57500 122.83928 27139 ft 476 kts 20°
2026-05-05 11:04 39.60390 122.86007 27460 ft 479 kts 20°
2026-05-05 11:04 39.63306 122.88101 27736 ft 482 kts 20°
2026-05-05 11:04 39.66257 122.90225 28027 ft 485 kts 20°
2026-05-05 11:05 39.69193 122.92342 28385 ft 487 kts 20°
2026-05-05 11:05 39.72168 122.94487 28654 ft 490 kts 20°
2026-05-05 11:05 39.75162 122.96648 28971 ft 492 kts 19°
2026-05-05 11:05 39.78117 122.98784 29237 ft 494 kts 19°
2026-05-05 11:06 39.81111 123.00950 29560 ft 496 kts 19°
2026-05-05 11:06 39.84161 123.03158 29801 ft 499 kts 19°
2026-05-05 11:06 39.87154 123.05328 30129 ft 499 kts 19°
2026-05-05 11:06 39.90222 123.07555 30459 ft 499 kts 19°
2026-05-05 11:07 39.93250 123.09755 30764 ft 499 kts 19°
2026-05-05 11:07 39.96250 123.11937 31060 ft 499 kts 19°
2026-05-05 11:07 39.99275 123.14138 31302 ft 499 kts 18°
2026-05-05 11:07 40.02323 123.16358 31535 ft 500 kts 18°
2026-05-05 11:08 40.05324 123.18542 31751 ft 500 kts 18°
2026-05-05 11:08 40.08376 123.20737 31940 ft 501 kts 18°
2026-05-05 11:08 40.11444 123.22942 31954 ft 504 kts 18°
2026-05-05 11:09 40.17554 123.27351 31952 ft 499 kts 18°
2026-05-05 11:09 40.23587 123.31708 31957 ft 498 kts 18°
2026-05-05 11:10 40.29686 123.36121 31957 ft 500 kts 18°
2026-05-05 11:10 40.35730 123.40505 31957 ft 499 kts 18°
2026-05-05 11:11 40.41799 123.44918 31958 ft 499 kts 18°
2026-05-05 11:11 40.44804 123.47109 31811 ft 491 kts 18°
2026-05-05 11:11 40.47747 123.49264 31542 ft 482 kts 18°
2026-05-05 11:11 40.50646 123.51372 30932 ft 480 kts 18°
2026-05-05 11:12 40.53568 123.53503 30302 ft 478 kts 18°
2026-05-05 11:12 40.56467 123.55621 29671 ft 477 kts 19°
2026-05-05 11:12 40.59288 123.58031 29007 ft 487 kts 27°
2026-05-05 11:12 40.61958 123.60744 28370 ft 487 kts 28°
2026-05-05 11:13 40.64609 123.63461 27855 ft 482 kts 28°
2026-05-05 11:13 40.67226 123.66155 27330 ft 478 kts 29°
2026-05-05 11:13 40.69831 123.68843 26830 ft 472 kts 29°
2026-05-05 11:13 40.72392 123.71492 26322 ft 467 kts 30°
2026-05-05 11:14 40.74925 123.74114 25821 ft 462 kts 30°
2026-05-05 11:14 40.77445 123.76726 25317 ft 457 kts 30°
2026-05-05 11:14 40.79921 123.79296 24817 ft 452 kts 30°
2026-05-05 11:14 40.82373 123.81844 24318 ft 447 kts 30°
2026-05-05 11:15 40.84795 123.84362 23819 ft 443 kts 30°
2026-05-05 11:15 40.87190 123.86855 23321 ft 438 kts 30°
2026-05-05 11:15 40.89579 123.89343 22820 ft 433 kts 30°
2026-05-05 11:15 40.91996 123.91605 22311 ft 422 kts 23°
2026-05-05 11:16 40.94526 123.93430 21840 ft 414 kts 21°
2026-05-05 11:16 40.97044 123.95226 21325 ft 411 kts 21°
2026-05-05 11:16 40.99544 123.97012 20740 ft 409 kts 21°
2026-05-05 11:16 41.02041 123.98801 20163 ft 407 kts 22°
2026-05-05 11:17 41.04515 124.00577 19596 ft 406 kts 22°
2026-05-05 11:17 41.06980 124.02349 19032 ft 404 kts 23°
2026-05-05 11:17 41.09465 124.04139 18505 ft 401 kts 23°
2026-05-05 11:17 41.11863 124.05869 18321 ft 397 kts 23°
2026-05-05 11:18 41.14314 124.07636 17884 ft 395 kts 24°
2026-05-05 11:18 41.16694 124.09359 17456 ft 391 kts 24°
2026-05-05 11:18 41.19053 124.11066 17050 ft 386 kts 24°
2026-05-05 11:18 41.21409 124.12775 16669 ft 381 kts 24°
2026-05-05 11:19 41.23708 124.14441 16228 ft 378 kts 24°
2026-05-05 11:19 41.26014 124.16114 15814 ft 374 kts 24°
2026-05-05 11:19 41.28273 124.17755 15444 ft 370 kts 25°
2026-05-05 11:19 41.30542 124.19411 14815 ft 376 kts 26°
2026-05-05 11:20 41.32798 124.21148 14080 ft 381 kts 27°
2026-05-05 11:20 41.35095 124.22877 13809 ft 371 kts 26°
2026-05-05 11:20 41.37303 124.24520 13605 ft 361 kts 26°
2026-05-05 11:20 41.39485 124.26123 13203 ft 358 kts 26°
2026-05-05 11:21 41.41669 124.27651 12754 ft 354 kts 20°
2026-05-05 11:21 41.44005 124.28489 12300 ft 347 kts
2026-05-05 11:21 41.46407 124.28393 11826 ft 342 kts 347°
2026-05-05 11:21 41.48623 124.27390 11350 ft 338 kts 330°
2026-05-05 11:22 41.50525 124.25611 10971 ft 331 kts 317°
2026-05-05 11:22 41.52238 124.23576 10955 ft 330 kts 316°
2026-05-05 11:22 41.53944 124.21444 10955 ft 335 kts 315°
2026-05-05 11:22 41.55592 124.19316 10949 ft 334 kts 314°
2026-05-05 11:23 41.57252 124.17138 10950 ft 333 kts 314°
2026-05-05 11:23 41.58907 124.14947 10950 ft 334 kts 314°
2026-05-05 11:23 41.60548 124.12762 10950 ft 334 kts 314°
2026-05-05 11:23 41.62176 124.10589 10939 ft 323 kts 314°
2026-05-05 11:24 41.63730 124.08513 10914 ft 309 kts 313°
2026-05-05 11:24 41.65214 124.06525 10889 ft 295 kts 313°
2026-05-05 11:24 41.66613 124.04645 10862 ft 281 kts 313°
2026-05-05 11:24 41.67984 124.02805 10661 ft 275 kts 313°
2026-05-05 11:25 41.69328 124.00996 10334 ft 273 kts 313°
2026-05-05 11:25 41.70663 123.99200 9998 ft 272 kts 313°
2026-05-05 11:25 41.71976 123.97433 9354 ft 270 kts 313°
2026-05-05 11:25 41.73295 123.95655 8664 ft 265 kts 312°
2026-05-05 11:26 41.74548 123.93969 8136 ft 258 kts 312°
2026-05-05 11:26 41.75805 123.92273 7636 ft 248 kts 312°
2026-05-05 11:26 41.77021 123.90630 6749 ft 259 kts 311°
2026-05-05 11:26 41.78284 123.88929 6027 ft 259 kts 314°
2026-05-05 11:27 41.79630 123.87342 5313 ft 260 kts 316°
2026-05-05 11:27 41.80985 123.85761 4632 ft 259 kts 316°
2026-05-05 11:27 41.82302 123.84109 3949 ft 257 kts 309°
2026-05-05 11:27 41.83120 123.82152 3658 ft 231 kts 275°
2026-05-05 11:28 41.83028 123.80121 4153 ft 212 kts 253°
2026-05-05 11:28 41.82567 123.78284 4448 ft 208 kts 244°
2026-05-05 11:28 41.81884 123.76533 4259 ft 213 kts 236°
2026-05-05 11:28 41.81076 123.74902 4026 ft 202 kts 232°
2026-05-05 11:29 41.80236 123.73389 3841 ft 205 kts 230°
2026-05-05 11:29 41.79359 123.71916 3683 ft 199 kts 229°
2026-05-05 11:29 41.78471 123.70480 3696 ft 200 kts 228°
2026-05-05 11:29 41.77567 123.69055 3694 ft 202 kts 227°
2026-05-05 11:30 41.76650 123.67628 3453 ft 205 kts 227°
2026-05-05 11:30 41.75758 123.66249 3140 ft 188 kts 226°
2026-05-05 11:30 41.74926 123.64969 2762 ft 175 kts 226°
2026-05-05 11:30 41.74165 123.63802 2359 ft 165 kts 225°
2026-05-05 11:31 41.73396 123.62636 1764 ft 165 kts 224°
2026-05-05 11:31 41.72886 123.61880 1722 ft 157 kts 224°
2026-05-05 11:33 41.72584 123.61438 1758 ft 159 kts 224°
2026-05-05 11:33 41.71800 123.60284 1779 ft 170 kts 224°
2026-05-05 11:33 41.71028 123.59129 1776 ft 166 kts 225°
2026-05-05 11:34 41.70247 123.57958 1791 ft 167 kts 225°
2026-05-05 11:34 41.69493 123.56805 1762 ft 157 kts 226°
2026-05-05 11:34 41.68788 123.55668 1417 ft 164 kts 227°
2026-05-05 11:34 41.68051 123.54495 1168 ft 168 kts 224°
2026-05-05 11:35 41.67274 123.53313 954 ft 170 kts 225°
2026-05-05 11:35 41.66951 123.52814 857 ft 172 kts 225°
2026-05-05 11:35 41.66610 123.52282 766 ft 173 kts 225°
2026-05-05 11:35 41.65839 123.51112 508 ft 178 kts 224°
2026-05-05 11:36 41.65410 123.50465 411 ft 178 kts 224°
2026-05-05 11:36 41.64608 123.49262 217 ft 165 kts 224°
2026-05-05 11:36 41.63953 123.48283 209 ft 114 kts 228°
2026-05-05 11:36 41.63613 123.47765 209 ft 22 kts 229°
2026-05-05 11:37 41.63497 123.47600 209 ft 27 kts 221°
2026-05-05 11:37 41.63332 123.47477 209 ft 19 kts 199°
2026-05-05 11:37 41.63319 123.47471 209 ft 0 kts 199°
2026-05-05 11:38 41.63304 123.47464 209 ft 8 kts 199°
2026-05-05 11:38 41.63240 123.47459 209 ft 10 kts 159°
2026-05-05 11:39 41.63180 123.47515 209 ft 10 kts 134°
2026-05-05 11:39 41.63182 123.47611 209 ft 11 kts 56°
2026-05-05 11:39 41.63240 123.47704 209 ft 15 kts 48°
2026-05-05 11:39 41.63337 123.47851 209 ft 24 kts 49°
2026-05-05 11:40 41.63453 123.48028 209 ft 26 kts 50°
2026-05-05 11:40 41.63578 123.48215 209 ft 27 kts 49°
2026-05-05 11:40 41.63710 123.48415 209 ft 29 kts 49°
2026-05-05 11:40 41.63807 123.48569 209 ft 14 kts 74°
2026-05-05 11:41 41.63755 123.48673 209 ft 14 kts 138°
2026-05-05 11:41 41.63730 123.48707 209 ft 2 kts 136°
2026-05-05 11:41 41.63721 123.48739 209 ft 6 kts 76°
2026-05-05 11:41 41.63759 123.48820 209 ft 14 kts 50°
2026-05-05 11:42 41.63804 123.48894 209 ft 9 kts 53°
2026-05-05 11:42 41.63809 123.48932 209 ft 0 kts 103°
2026-05-05 11:42 41.63805 123.48947 209 ft 3 kts 114°
2026-05-05 11:43 41.63784 123.48981 209 ft 2 kts 140°
2026-05-05 11:43 41.63777 123.48987 209 ft 1 kts 141°
2026-05-05 11:43 41.63775 123.48989 209 ft 0 kts 141°